| time (UTC) | temp F | wind direction | speed knots | gust knots | rain 1hr in | rain 24hr in | rain mn in | humidity % | barometer mb |
| 20260507223055 | 55 | 46 | 4.3 | 8.7 | 0.00 | 0.03 | 0.00 | 38 | 1007.7 |
| 20260507221552 | 55 | 307 | 1.7 | 6.1 | 0.00 | 0.03 | 0.00 | 42 | 1007.7 |
| 20260507220056 | 54 | 326 | 3.5 | 15.6 | 0.00 | 0.03 | 0.00 | 40 | 1007.9 |
| 20260507214551 | 54 | 259 | 5.2 | 11.3 | 0.00 | 0.03 | 0.00 | 40 | 1007.9 |
| 20260507213052 | 54 | 287 | 7.8 | 16.5 | 0.00 | 0.03 | 0.00 | 41 | 1007.7 |
| 20260507211551 | 53 | 295 | 3.5 | 12.2 | 0.00 | 0.03 | 0.00 | 41 | 1007.8 |
| 20260507210104 | 54 | 339 | 8.7 | 18.2 | 0.00 | 0.03 | 0.00 | 40 | 1007.8 |
| 20260507204554 | 53 | 353 | 9.6 | 19.1 | 0.00 | 0.03 | 0.00 | 41 | 1007.8 |
| 20260507203115 | 54 | 208 | 4.3 | 12.2 | 0.00 | 0.03 | 0.00 | 40 | 1007.7 |
| 20260507201552 | 54 | 259 | 3.5 | 11.3 | 0.00 | 0.03 | 0.00 | 44 | 1007.8 |
| 20260507200054 | 53 | 291 | 7.8 | 13.0 | 0.00 | 0.03 | 0.00 | 42 | 1007.9 |
| 20260507194602 | 53 | 300 | 6.1 | 13.0 | 0.00 | 0.03 | 0.00 | 41 | 1007.9 |
| 20260507193055 | 54 | 317 | 6.1 | 13.0 | 0.00 | 0.03 | 0.00 | 42 | 1007.9 |
| 20260507191550 | 56 | 301 | 4.3 | 15.6 | 0.00 | 0.03 | 0.00 | 40 | 1008.2 |
| 20260507190057 | 54 | 257 | 2.6 | 13.9 | 0.00 | 0.03 | 0.00 | 42 | 1008.4 |
| 20260507184552 | 55 | 335 | 2.6 | 10.4 | 0.00 | 0.06 | 0.00 | 42 | 1008.6 |
| 20260507183052 | 55 | 316 | 2.6 | 10.4 | 0.00 | 0.06 | 0.00 | 42 | 1008.6 |
| 20260507181553 | 53 | 328 | 6.1 | 11.3 | 0.00 | 0.06 | 0.00 | 44 | 1008.8 |
| 20260507180053 | 53 | 25 | 2.6 | 13.0 | 0.00 | 0.06 | 0.00 | 41 | 1008.8 |
| 20260507174554 | 55 | 290 | 3.5 | 11.3 | 0.00 | 0.15 | 0.00 | 42 | 1009.0 |
| 20260507173124 | 54 | 274 | 5.2 | 14.8 | 0.00 | 0.15 | 0.00 | 41 | 1009.0 |
| 20260507171558 | 55 | 260 | 5.2 | 13.0 | 0.00 | 0.15 | 0.00 | 43 | 1008.9 |
| 20260507170052 | 55 | 295 | 6.1 | 14.8 | 0.00 | 0.15 | 0.00 | 38 | 1009.0 |
| 20260507164553 | 54 | 305 | 5.2 | 13.0 | 0.00 | 0.28 | 0.00 | 41 | 1009.2 |
| 20260507163051 | 53 | 212 | 6.1 | 11.3 | 0.00 | 0.28 | 0.00 | 40 | 1009.3 |
| 20260507161607 | 54 | 319 | 1.7 | 15.6 | 0.00 | 0.28 | 0.00 | 42 | 1009.3 |
| 20260507160058 | 52 | 231 | 5.2 | 13.0 | 0.00 | 0.28 | 0.00 | 43 | 1009.5 |
| 20260507154553 | 52 | 300 | 5.2 | 12.2 | 0.00 | 0.37 | 0.00 | 46 | 1009.9 |
| 20260507153059 | 52 | 312 | 4.3 | 13.0 | 0.00 | 0.37 | 0.00 | 43 | 1010.3 |
| 20260507151554 | 52 | 316 | 3.5 | 8.7 | 0.00 | 0.37 | 0.00 | 44 | 1010.1 |
| 20260507150052 | 51 | 294 | 3.5 | 9.6 | 0.00 | 0.37 | 0.00 | 48 | 1010.1 |
| 20260507144603 | 50 | 319 | 7.0 | 10.4 | 0.00 | 0.45 | 0.00 | 46 | 1010.3 |
| 20260507143101 | 50 | 307 | 4.3 | 11.3 | 0.00 | 0.45 | 0.00 | 47 | 1010.1 |
| 20260507141559 | 50 | 232 | 5.2 | 11.3 | 0.00 | 0.45 | 0.00 | 45 | 1010.3 |
| 20260507140056 | 49 | 300 | 2.6 | 8.7 | 0.00 | 0.45 | 0.00 | 47 | 1010.4 |
| 20260507134556 | 49 | 265 | 0.9 | 4.3 | 0.00 | 0.49 | 0.00 | 51 | 1010.6 |
| 20260507133139 | 48 | 325 | 2.6 | 5.2 | 0.00 | 0.49 | 0.00 | 51 | 1010.7 |
| 20260507131550 | 47 | 86 | 1.7 | 7.0 | 0.00 | 0.49 | 0.00 | 53 | 1010.7 |
| 20260507130104 | 46 | 346 | 2.6 | 7.0 | 0.00 | 0.49 | 0.00 | 55 | 1010.7 |
| 20260507124606 | 46 | 327 | 3.5 | 9.6 | 0.00 | 0.49 | 0.00 | 53 | 1010.6 |
| 20260507123056 | 46 | 299 | 2.6 | 7.0 | 0.00 | 0.49 | 0.00 | 50 | 1010.6 |
| 20260507121559 | 45 | 349 | 0.9 | 8.7 | 0.00 | 0.49 | 0.00 | 53 | 1010.6 |
| 20260507114610 | 45 | 309 | 2.6 | 7.8 | 0.00 | 0.49 | 0.00 | 54 | 1010.3 |
| 20260507113055 | 43 | 337 | 1.7 | 5.2 | 0.00 | 0.49 | 0.00 | 58 | 1010.3 |
| 20260507111558 | 43 | 0 | 0.9 | 9.6 | 0.00 | 0.49 | 0.00 | 60 | 1010.4 |
| 20260507110054 | 42 | 0 | 0.9 | 3.5 | 0.00 | 0.49 | 0.00 | 62 | 1010.1 |
| 20260507104604 | 43 | 37 | 0.9 | 5.2 | 0.00 | 0.49 | 0.00 | 64 | 1010.1 |
| 20260507103100 | 43 | 57 | 1.7 | 3.5 | 0.00 | 0.49 | 0.00 | 66 | 1010.0 |
| 20260507101603 | 44 | 108 | 1.7 | 13.0 | 0.00 | 0.49 | 0.00 | 67 | 1009.6 |
| 20260507100052 | 44 | 319 | 0.0 | 7.8 | 0.00 | 0.49 | 0.00 | 71 | 1009.5 |
| 20260507094558 | 45 | 299 | 1.7 | 9.6 | 0.00 | 0.49 | 0.00 | 72 | 1009.1 |
| 20260507093054 | 45 | 315 | 0.9 | 4.3 | 0.00 | 0.49 | 0.00 | 60 | 1009.1 |
| 20260507091553 | 45 | 0 | 0.0 | 2.6 | 0.00 | 0.49 | 0.00 | 54 | 1009.1 |
| 20260507084550 | 45 | 287 | 0.0 | 3.5 | 0.00 | 0.49 | 0.00 | 63 | 1009.4 |
| 20260507083056 | 45 | 320 | 1.7 | 3.5 | 0.00 | 0.49 | 0.00 | 65 | 1009.5 |
| 20260507081553 | 45 | 215 | 2.6 | 7.8 | 0.00 | 0.49 | 0.00 | 66 | 1009.5 |
| 20260507080059 | 46 | 304 | 0.0 | 1.7 | 0.00 | 0.49 | 0.00 | 67 | 1009.7 |
| 20260507074555 | 46 | 75 | 0.0 | 4.3 | 0.00 | 0.49 | 0.00 | 68 | 1009.6 |
| 20260507073104 | 46 | 0 | 0.0 | 5.2 | 0.00 | 0.49 | 0.00 | 61 | 1009.9 |
| 20260507071549 | 46 | 264 | 1.7 | 3.5 | 0.00 | 0.49 | 0.00 | 59 | 1009.4 |
| 20260507070101 | 46 | 323 | 0.9 | 3.5 | 0.00 | 0.49 | 0.00 | 47 | 1009.2 |
| 20260507064556 | 46 | 0 | 0.0 | 2.6 | 0.00 | 0.49 | 0.00 | 54 | 1008.6 |
| 20260507063054 | 46 | 235 | 0.9 | 3.5 | 0.00 | 0.49 | 0.00 | 51 | 1008.8 |
| 20260507061554 | 47 | 297 | 1.7 | 3.5 | 0.00 | 0.49 | 0.00 | 37 | 1008.6 |
| 20260507060059 | 47 | 245 | 0.9 | 1.7 | 0.00 | 0.49 | 0.00 | 26 | 1008.7 |
| 20260507054551 | 47 | 276 | 0.0 | 2.6 | 0.00 | 0.49 | 0.00 | 28 | 1008.8 |
| 20260507053058 | 47 | 236 | 0.9 | 3.5 | 0.00 | 0.49 | 0.00 | 35 | 1009.0 |
| 20260507051549 | 47 | 201 | 0.9 | 1.7 | 0.00 | 0.49 | 0.00 | 32 | 1009.0 |
| 20260507050054 | 48 | 261 | 0.9 | 3.5 | 0.00 | 0.49 | 0.00 | 33 | 1009.0 |
| 20260507044600 | 48 | 262 | 0.9 | 2.6 | 0.00 | 0.49 | 0.00 | 36 | 1009.5 |
| 20260507043051 | 48 | 276 | 0.9 | 3.5 | 0.00 | 0.49 | 0.00 | 30 | 1009.3 |
| 20260507041553 | 49 | 266 | 0.9 | 6.1 | 0.00 | 0.49 | 0.00 | 31 | 1009.3 |
| 20260507040056 | 49 | 283 | 1.7 | 4.3 | 0.00 | 0.49 | 0.00 | 43 | 1009.3 |
| 20260507034553 | 49 | 307 | 0.9 | 2.6 | 0.00 | 0.49 | 0.49 | 44 | 1009.0 |
| 20260507033102 | 49 | 228 | 0.9 | 3.5 | 0.00 | 0.49 | 0.49 | 51 | 1008.9 |
| 20260507031601 | 49 | 0 | 0.0 | 1.7 | 0.00 | 0.49 | 0.49 | 52 | 1008.9 |
| 20260507030108 | 49 | 231 | 0.0 | 4.3 | 0.00 | 0.49 | 0.49 | 54 | 1009.1 |
| 20260507024607 | 50 | 245 | 0.9 | 6.1 | 0.00 | 0.49 | 0.49 | 42 | 1009.1 |
| 20260507023052 | 50 | 0 | 0.0 | 2.6 | 0.00 | 0.49 | 0.49 | 47 | 1009.2 |
| 20260507021557 | 50 | 233 | 2.6 | 7.8 | 0.00 | 0.49 | 0.49 | 50 | 1009.0 |
| 20260507020104 | 50 | 248 | 1.7 | 7.0 | 0.00 | 0.49 | 0.49 | 46 | 1009.1 |
| 20260507014559 | 51 | 228 | 0.9 | 3.5 | 0.00 | 0.49 | 0.49 | 47 | 1009.2 |
| 20260507013100 | 51 | 231 | 0.0 | 6.1 | 0.00 | 0.49 | 0.49 | 51 | 1008.9 |
| 20260507011553 | 51 | 219 | 1.7 | 4.3 | 0.00 | 0.49 | 0.49 | 27 | 1008.7 |
| 20260507004556 | 52 | 300 | 0.9 | 5.2 | 0.00 | 0.49 | 0.49 | 25 | 1008.3 |
| 20260507003106 | 53 | 200 | 1.7 | 5.2 | 0.00 | 0.49 | 0.49 | 29 | 1008.1 |
| 20260507001550 | 53 | 281 | 1.7 | 4.3 | 0.00 | 0.49 | 0.49 | 7 | 1008.1 |
| 20260507000057 | 54 | 229 | 0.9 | 7.0 | 0.00 | 0.49 | 0.49 | 100 | 1007.7 |
| 20260506234604 | 54 | 201 | 1.7 | 5.2 | 0.00 | 0.49 | 0.49 | 100 | 1007.5 |
| 20260506233059 | 55 | 225 | 3.5 | 7.8 | 0.02 | 0.49 | 0.49 | 100 | 1007.1 |
| 20260506231556 | 56 | 315 | 0.9 | 7.0 | 0.02 | 0.49 | 0.49 | 100 | 1007.0 |
| 20260506224602 | 56 | 320 | 9.6 | 17.4 | 0.03 | 0.49 | 0.49 | 100 | 1006.1 |